| time (UTC) | temp F | wind direction | speed MPH | gust MPH | rain 1hr in | rain 24hr in | rain mn in | humidity % | barometer mb |
| 20260506221504 | 55 | 350 | 2.0 | 0.0 | 0.00 | 0.00 | 0.00 | 43 | 1010.0 |
| 20260506213004 | 55 | 50 | 3.0 | 0.0 | 0.00 | 0.00 | 0.00 | 40 | 1010.0 |
| 20260506211504 | 55 | 50 | 3.0 | 0.0 | 0.00 | 0.00 | 0.00 | 40 | 1010.0 |
| 20260506210005 | 57 | 40 | 2.0 | 0.0 | 0.00 | 0.00 | 0.00 | 44 | 1010.0 |
| 20260506204504 | 57 | 40 | 2.0 | 0.0 | 0.00 | 0.00 | 0.00 | 44 | 1010.0 |
| 20260506201504 | 61 | 0 | 2.0 | 0.0 | 0.00 | 0.00 | 0.00 | 33 | 1010.0 |
| 20260506194504 | 64 | 190 | 3.0 | 0.0 | 0.00 | 0.00 | 0.00 | 27 | 1010.0 |
| 20260506191504 | 66 | 0 | 1.0 | 0.0 | 0.00 | 0.00 | 0.00 | 24 | 1010.0 |
| 20260506184503 | 66 | 0 | 2.0 | 0.0 | 0.00 | 0.00 | 0.00 | 24 | 1010.0 |
| 20260506183005 | 68 | 0 | 3.0 | 0.0 | 0.00 | 0.00 | 0.00 | 26 | 1010.0 |
| 20260506180005 | 68 | 360 | 3.0 | 0.0 | 0.00 | 0.00 | 0.00 | 26 | 1010.0 |
| 20260506173004 | 68 | 250 | 3.0 | 0.0 | 0.00 | 0.00 | 0.00 | 22 | 1010.0 |
| 20260506171504 | 68 | 250 | 3.0 | 0.0 | 0.00 | 0.00 | 0.00 | 22 | 1010.0 |
| 20260506170004 | 68 | 200 | 3.0 | 0.0 | 0.00 | 0.00 | 0.00 | 26 | 1010.0 |
| 20260506163005 | 68 | 190 | 5.0 | 0.0 | 0.00 | 0.00 | 0.00 | 26 | 1011.0 |
| 20260506161504 | 68 | 190 | 5.0 | 0.0 | 0.00 | 0.00 | 0.00 | 26 | 1011.0 |
| 20260506154504 | 68 | 250 | 2.0 | 0.0 | 0.00 | 0.00 | 0.00 | 30 | 1011.0 |
| 20260506153004 | 66 | 230 | 5.0 | 0.0 | 0.00 | 0.00 | 0.00 | 29 | 1011.0 |
| 20260506151504 | 66 | 230 | 5.0 | 0.0 | 0.00 | 0.00 | 0.00 | 29 | 1011.0 |
| 20260506144504 | 66 | 60 | 3.0 | 0.0 | 0.00 | 0.00 | 0.00 | 34 | 1012.0 |
| 20260506143005 | 66 | 200 | 6.0 | 0.0 | 0.00 | 0.00 | 0.00 | 29 | 1012.0 |
| 20260506141504 | 66 | 200 | 6.0 | 0.0 | 0.00 | 0.00 | 0.00 | 29 | 1012.0 |
| 20260506140004 | 66 | 210 | 5.0 | 0.0 | 0.00 | 0.00 | 0.00 | 32 | 1012.0 |
| 20260506134504 | 66 | 210 | 5.0 | 0.0 | 0.00 | 0.00 | 0.00 | 32 | 1012.0 |
| 20260506133004 | 64 | 120 | 2.0 | 0.0 | 0.00 | 0.00 | 0.00 | 36 | 1013.0 |
| 20260506131504 | 64 | 120 | 2.0 | 0.0 | 0.00 | 0.00 | 0.00 | 36 | 1013.0 |
| 20260506130005 | 64 | 180 | 5.0 | 0.0 | 0.00 | 0.00 | 0.00 | 39 | 1013.0 |
| 20260506121504 | 63 | 60 | 3.0 | 0.0 | 0.00 | 0.00 | 0.00 | 39 | 1013.0 |
| 20260506120005 | 61 | 260 | 6.0 | 0.0 | 0.00 | 0.00 | 0.00 | 44 | 1013.0 |
| 20260506113004 | 59 | 10 | 6.0 | 0.0 | 0.00 | 0.00 | 0.00 | 44 | 1013.0 |
| 20260506104504 | 61 | 20 | 5.0 | 0.0 | 0.00 | 0.00 | 0.00 | 44 | 1014.0 |
| 20260506103004 | 59 | 20 | 3.0 | 0.0 | 0.00 | 0.00 | 0.00 | 47 | 1014.0 |
| 20260506100004 | 57 | 60 | 3.0 | 0.0 | 0.00 | 0.00 | 0.00 | 50 | 1014.0 |
| 20260506094504 | 57 | 60 | 3.0 | 0.0 | 0.00 | 0.00 | 0.00 | 50 | 1014.0 |
| 20260506093004 | 55 | 40 | 5.0 | 0.0 | 0.00 | 0.00 | 0.00 | 58 | 1014.0 |
| 20260506083003 | 50 | 340 | 5.0 | 0.0 | 0.00 | 0.00 | 0.00 | 71 | 1014.0 |
| 20260506081505 | 50 | 340 | 5.0 | 0.0 | 0.00 | 0.00 | 0.00 | 71 | 1014.0 |
| 20260506073004 | 46 | 0 | 2.0 | 0.0 | 0.00 | 0.00 | 0.00 | 75 | 1013.0 |
| 20260506044504 | 41 | 0 | 1.0 | 0.0 | 0.00 | 0.00 | 0.00 | 93 | 1013.0 |
| 20260506040005 | 45 | 0 | 2.0 | 0.0 | 0.00 | 0.00 | 0.00 | 75 | 1013.0 |
| 20260506034504 | 45 | 0 | 2.0 | 0.0 | 0.00 | 0.00 | 0.00 | 75 | 1013.0 |
| 20260506033005 | 46 | 90 | 3.0 | 0.0 | 0.00 | 0.00 | 0.00 | 70 | 1013.0 |
| 20260506031504 | 46 | 90 | 3.0 | 0.0 | 0.00 | 0.00 | 0.00 | 70 | 1013.0 |
| 20260506021504 | 46 | 0 | 1.0 | 0.0 | 0.00 | 0.00 | 0.00 | 70 | 1013.0 |
| 20260506014503 | 46 | 0 | 1.0 | 0.0 | 0.00 | 0.00 | 0.00 | 70 | 1013.0 |
| 20260506013005 | 48 | 0 | 1.0 | 0.0 | 0.00 | 0.00 | 0.00 | 66 | 1013.0 |
| 20260506010004 | 48 | 120 | 1.0 | 0.0 | 0.00 | 0.00 | 0.00 | 66 | 1014.0 |
| 20260506004504 | 48 | 120 | 1.0 | 0.0 | 0.00 | 0.00 | 0.00 | 66 | 1014.0 |
| 20260506001503 | 48 | 0 | 2.0 | 0.0 | 0.00 | 0.00 | 0.00 | 66 | 1013.0 |
| 20260505230003 | 54 | 0 | 2.0 | 0.0 | 0.00 | 0.00 | 0.00 | 46 | 1013.0 |
| 20260505224504 | 54 | 0 | 2.0 | 0.0 | 0.00 | 0.00 | 0.00 | 46 | 1013.0 |